TimeEDT,TemperatureF,Dew PointF,Humidity,Sea Level PressureIn,VisibilityMPH,Wind Direction,Wind SpeedMPH,Gust SpeedMPH,PrecipitationIn,Events,Conditions,WindDirDegrees,DateUTC
12:37 AM,33.8,32.0,93,29.57,0.8,NNW,12.7,-,0.05,Snow,Light Snow,340,2013-03-22 04:37:00
12:49 AM,33.8,32.0,93,29.56,1.0,NNW,15.0,-,0.06,Snow,Light Snow,330,2013-03-22 04:49:00
12:53 AM,33.1,32.0,96,29.57,0.8,NNW,15.0,-,0.06,Snow,Light Snow,330,2013-03-22 04:53:00
1:26 AM,33.8,32.0,93,29.57,1.0,NW,11.5,-,0.02,Snow,Light Snow,310,2013-03-22 05:26:00
1:38 AM,33.8,32.0,93,29.57,0.8,NW,16.1,21.9,0.02,Snow,Light Snow,320,2013-03-22 05:38:00
1:51 AM,33.8,32.0,93,29.57,1.0,NW,13.8,-,0.02,Snow,Light Snow,320,2013-03-22 05:51:00
1:53 AM,33.1,32.0,96,29.57,1.0,NW,17.3,-,0.02,Snow,Light Snow,320,2013-03-22 05:53:00
2:14 AM,33.8,32.0,93,29.57,1.2,NW,16.1,24.2,0.00,Snow,Light Snow,320,2013-03-22 06:14:00
2:53 AM,33.1,30.9,92,29.56,1.2,NW,18.4,25.3,0.00,Snow,Light Snow,320,2013-03-22 06:53:00
3:53 AM,32.0,30.0,92,29.57,1.2,WNW,18.4,26.5,0.00,Snow,Light Snow,300,2013-03-22 07:53:00
4:53 AM,30.9,28.9,92,29.58,2.0,NW,17.3,29.9,0.00,Snow,Light Snow,310,2013-03-22 08:53:00
5:26 AM,30.2,28.4,93,29.59,2.0,NW,18.4,28.8,0.00,Snow,Light Snow,310,2013-03-22 09:26:00
5:43 AM,30.2,28.4,93,29.60,3.0,NW,17.3,27.6,0.00,Snow,Light Snow,310,2013-03-22 09:43:00
5:53 AM,30.0,27.0,88,29.60,3.0,NW,16.1,26.5,0.00,Snow,Light Snow,310,2013-03-22 09:53:00
6:53 AM,30.0,28.0,92,29.61,3.0,NW,15.0,-,0.00,Snow,Light Snow,320,2013-03-22 10:53:00
7:39 AM,30.2,28.4,93,29.63,10.0,NW,13.8,-,0.00,,Overcast,310,2013-03-22 11:39:00
7:53 AM,30.9,28.0,89,29.64,10.0,WNW,15.0,20.7,0.00,,Overcast,300,2013-03-22 11:53:00
8:53 AM,30.9,25.0,79,29.65,10.0,WNW,11.5,-,N/A,,Overcast,300,2013-03-22 12:53:00
9:53 AM,33.1,26.1,75,29.66,10.0,WNW,13.8,-,N/A,,Clear,290,2013-03-22 13:53:00
10:53 AM,34.0,25.0,70,29.67,10.0,WNW,16.1,21.9,N/A,,Clear,300,2013-03-22 14:53:00
11:53 AM,35.1,26.1,70,29.68,10.0,WNW,12.7,-,N/A,,Clear,300,2013-03-22 15:53:00
12:53 PM,35.1,25.0,67,29.68,10.0,NW,16.1,-,N/A,,Partly Cloudy,310,2013-03-22 16:53:00
1:53 PM,36.0,24.1,62,29.68,10.0,WNW,11.5,-,N/A,,Clear,290,2013-03-22 17:53:00
2:53 PM,37.0,21.9,54,29.68,10.0,West,19.6,26.5,N/A,,Clear,260,2013-03-22 18:53:00
3:53 PM,37.0,25.0,62,29.68,10.0,West,20.7,27.6,N/A,,Clear,260,2013-03-22 19:53:00
4:53 PM,37.9,25.0,60,29.68,10.0,West,21.9,-,N/A,,Partly Cloudy,260,2013-03-22 20:53:00
5:53 PM,37.9,24.1,57,29.69,10.0,West,20.7,27.6,N/A,,Mostly Cloudy,260,2013-03-22 21:53:00
6:53 PM,37.0,24.1,59,29.71,10.0,West,18.4,-,N/A,,Overcast,260,2013-03-22 22:53:00
7:53 PM,37.9,24.1,57,29.73,10.0,West,17.3,27.6,N/A,,Overcast,260,2013-03-22 23:53:00
8:53 PM,37.9,21.9,53,29.74,10.0,WNW,12.7,-,0.00,,Overcast,290,2013-03-23 00:53:00
9:53 PM,37.9,24.1,57,29.75,10.0,West,12.7,-,N/A,,Overcast,270,2013-03-23 01:53:00
10:53 PM,37.9,21.9,53,29.75,10.0,West,13.8,23.0,N/A,,Overcast,280,2013-03-23 02:53:00
11:53 PM,37.9,24.1,57,29.74,10.0,West,15.0,25.3,N/A,,Overcast,280,2013-03-23 03:53:00